World > North America > United States > Texas

Hourly Fairmount, TX Regional Weather

Feedback E-mail the Weather

Quick WX

Fairmount, TX Weather Maps

°F °C°F °C
Fairmount Weather Map
UTC Time: 7/2/2022, 10:57
Your Time:

Fairmount, TX Regional Weather

Expires:202207021100;;544990
ASUS44 KFWD 021015
RWRTX 
NORTH TEXAS HOURLY WEATHER ROUNDUP
NATIONAL WEATHER SERVICE FORT WORTH TX
500 AM CDT SAT JUL 02 2022

NOTE: "FAIR" INDICATES FEW OR NO CLOUDS BELOW 12,000 FEET WITH NO
SIGNIFICANT WEATHER AND/OR OBSTRUCTIONS TO VISIBILITY.


TXZ095>097-106>112-122>126-135>138-148>153-164>167-021100-
EAST TEXAS
  
CITY           SKY/WX    TMP DP  RH WIND       PRES   REMARKS
PARIS          FAIR      72  70  93 E6        29.95S                  
SULPHUR SPRNGS FAIR      74  72  91 CALM      29.96S                  
MOUNT PLEASANT FAIR      72  72  98 CALM      29.94S                  
GILMER         CLOUDY    74  70  87 CALM      29.95R                  
MINEOLA          N/A     72  70  94 CALM      29.94R                  
TYLER          FAIR      75  72  90 S6        29.93S                  
LONGVIEW       CLOUDY    76  72  87 SE5       29.93S                  
MARSHALL       CLOUDY    75  72  89 CALM      29.96S                  
ATHENS         FAIR      72  70  94 CALM      29.92S                  
PALESTINE      CLOUDY    75  73  94 CALM      29.93R                  
JACKSONVILLE   CLOUDY    74  73  96 CALM      29.96S                  
HENDERSON      CLOUDY    78  70  74 CALM      29.95R                  
CENTER         CLOUDY    79  73  83 CALM      29.95S                  
NACOGDOCHES    CLOUDY    77  77 100 S8        29.94S                  
LUFKIN         CLOUDY    78  76  93 S5        29.94R                  
$$

SUPPLEMENTAL OBSERVATIONS (NWS FORT WORTH AREA)
  
CITY           SKY/WX    TMP DP  RH WIND       PRES   REMARKS
CADDO GRASSLND   N/A     73  68  83 CALM        N/A                   
LBJ GRASSLAND    N/A     79  70  73 SE6         N/A                   
GRANBURY         N/A     79  68  69 SE8         N/A                   
MCGREGOR         N/A     77  72  83 S3          N/A                   
$$

SUPPLEMENTAL OBSERVATIONS (NWS NORMAN AREA)
  
CITY           SKY/WX    TMP DP  RH WIND       PRES   REMARKS
GOODLETT         N/A     77  63  60 SE8       29.93R                  
ODELL            N/A     76  65  69 SE8       29.94S                  
CROWELL          N/A     76  63  65 SE5       29.94R                  
KNOX CITY        N/A     75  64  67 CALM      29.93R                  
SEYMOUR          N/A     76  64  66 SE9       29.93R                  
MILLERS CREEK    N/A    N/A N/A N/A SE5         N/A                   
$$

SUPPLEMENTAL OBSERVATIONS (NWS SAN ANGELO AREA)
  
CITY           SKY/WX    TMP DP  RH WIND       PRES   REMARKS
WEINERT          N/A     77  63  61 SE7       29.94R                  
HASKELL          N/A     77  65  65 SE7       29.93S                  
THROCKMORTON     N/A     73  64  73 SE6       29.94S                  
STAMFORD         N/A     78  65  64 S7        29.94R                  
CLYDE            N/A     75  65  70 S8        29.98S                  
HAMBY            N/A     79  64  61 S8          N/A                   
IVIE RESERVOIR   N/A     77  64  65 SE6         N/A                   
COLORADO BEND    N/A     73  68  83 S2          N/A                   
$$

SUPPLEMENTAL OBSERVATIONS (NWS SHREVEPORT AREA)
  
CITY           SKY/WX    TMP DP  RH WIND       PRES   REMARKS
TEXARKANA        N/A     73  72  94 CALM        N/A                   
LUFKIN           N/A     77  75  94 MISG        N/A                   
$$

SUPPLEMENTAL OBSERVATIONS ARE A COLLECTION OF AUTOMATED INSTRUMENTS
THAT ARE MAINTAINED BY A VARIETY OF FEDERAL AND STATE AGENCIES. 
CERTAIN ELEMENTS...SUCH AS HUMIDITY VALUES AND SUSTAINED WIND 
SPEEDS...MAY BE APPROXIMATED.

  

SKY/WX - Weather  TMP - Temperature  DP - Dew Point  RH - Humidity
WIND - Wind Direction/Speed PRES - Barometric Pressure VSB - Visibility
WCI - Wind Chill Index E13G22 Wind - East Wind 13 mph/Gusts of 22 mph

Trending Headlines

Fairmount Radar Loop



Fairmount Quick Facts


National Two Day Weather Forecast


E-mail the Fairmount Weather Forecast

Voice your opinion or tell us about page issues...